Theta_e
283 283 283 283 283 283 283 283 283 283 283 283 283 283 283 283 284 284 284 284 284 284 285 285 285 287 286 287 287 287 286 286 282 286 288 289 289 289 289 288 288 287 287
282 282 283 283 282 282 282 283 283 283 283 283 283 283 283 282 283 282 282 283 282 282 283 283 284 285 285 286 286 285 285 286 284 282 286 287 287 289 287 286 286 285 285
281 281 281 281 281 281 282 282 283 282 283 283 282 282 282 282 282 282 282 282 282 282 282 282 283 284 283 285 285 284 285 285 284 283 282 286 287 288 286 285 284 285 284
280 280 280 281 281 281 282 282 282 282 282 282 282 282 282 282 282 282 281 281 281 282 282 283 283 283 283 283 284 284 284 283 283 283 282 283 285 286 284 282 282 285 284
278 277 279 281 281 280 280 281 281 281 281 281 281 282 281 281 281 281 282 282 281 282 282 282 283 283 283 283 283 283 283 282 282 281 281 283 283 283 281 283 281 283 283
274 275 276 275 276 276 278 279 279 279 279 280 280 280 280 281 283 284 284 283 282 281 281 282 282 282 283 284 285 286 286 284 282 281 281 281 282 282 283 282 282 279 277
271 272 272 272 272 273 274 276 276 278 278 278 278 279 278 279 282 283 284 283 281 281 280 280 280 282 282 282 283 285 285 286 287 286 284 283 283 284 284 282 281 280 279
269 271 273 272 272 273 273 275 275 277 276 276 277 277 277 278 282 283 283 282 281 280 280 280 279 279 282 282 282 282 283 283 284 284 284 284 286 285 282 282 281 281 282
271 274 274 273 272 273 274 275 276 275 276 276 276 276 276 276 280 282 282 281 279 278 279 279 279 279 282 283 281 281 283 283 285 286 287 287 287 287 286 283 281 279 277
276 276 276 275 274 273 275 275 276 276 276 276 276 276 276 276 279 281 281 279 277 278 278 279 280 280 283 283 282 282 282 283 283 282 283 283 283 281 283 283 281 278 278
279 277 276 275 275 275 276 275 275 274 274 273 274 274 274 274 275 279 281 279 278 277 277 278 280 282 283 284 285 283 283 285 284 283 282 280 278 278 278 279 280 279 277
277 277 277 277 277 278 276 276 275 273 272 272 271 272 275 275 275 278 280 280 280 278 278 278 279 282 284 284 284 285 286 286 285 283 280 279 277 279 277 277 278 277 278
275 275 275 275 276 277 275 275 274 274 273 273 273 273 274 276 275 278 279 280 279 277 278 278 280 281 283 283 284 284 284 284 283 281 280 279 279 277 276 275 276 276 274
274 273 272 273 274 273 274 275 274 273 273 273 273 273 274 275 275 275 275 275 276 277 277 277 278 280 281 282 281 282 283 283 282 280 280 279 278 275 274 275 274 275 274
272 271 272 273 272 272 273 273 273 274 274 273 274 275 275 274 276 277 277 277 278 277 276 277 277 277 277 277 278 280 281 280 278 278 277 276 275 275 274 274 273 273 273
272 271 272 272 271 271 271 272 276 278 279 279 280 279 279 280 281 281 281 280 280 280 277 275 275 275 275 275 276 279 278 277 277 277 275 274 274 274 274 274 272 271 271
271 271 271 270 271 270 269 269 269 273 277 278 278 279 279 279 279 279 279 279 279 278 274 273 274 274 275 276 277 278 278 277 277 275 275 273 274 274 274 274 272 269 269
269 269 270 270 269 269 269 269 269 269 269 270 274 275 276 277 277 277 277 276 272 272 272 271 272 274 276 277 277 277 277 276 275 274 273 273 274 274 273 272 270 269 268
267 268 269 267 266 267 268 269 269 269 269 269 270 272 272 274 274 274 274 269 267 267 268 270 273 274 276 278 277 276 275 273 274 273 273 272 274 274 273 272 269 265 264
266 265 265 265 266 266 267 268 268 268 268 268 268 268 269 266 264 264 265 264 264 266 268 271 272 276 278 276 276 275 273 272 272 273 272 274 274 274 273 269 267 267 266
263 264 265 267 266 267 266 266 267 267 266 266 267 268 271 269 268 267 266 266 266 266 267 269 273 276 275 275 276 273 272 271 271 272 273 274 273 272 271 269 266 264 264
263 263 262 262 264 264 264 265 265 265 265 265 265 267 270 267 265 263 264 264 265 266 267 269 271 275 277 276 275 273 271 270 271 273 274 273 272 269 266 265 264 263 264
261 262 262 262 262 262 263 263 263 263 263 264 264 264 264 263 262 262 262 263 264 266 268 271 272 276 277 276 274 274 272 271 272 275 273 271 269 266 265 264 262 262 264
260 259 260 262 262 261 261 261 262 262 262 262 262 262 262 261 261 261 262 263 265 266 267 269 271 275 275 273 272 273 273 271 273 274 273 270 267 265 264 263 263 261 261
258 259 260 260 261 261 261 261 261 261 261 261 262 261 261 261 260 261 263 264 264 265 267 270 273 275 274 272 271 270 269 272 273 272 272 269 266 264 263 262 261 259 258
258 259 260 260 260 261 260 260 260 261 261 261 262 262 262 262 262 263 263 264 265 267 268 270 274 272 273 272 270 269 269 270 269 269 268 267 265 263 263 261 259 260 258
Wind_Speed
4 3 3 2 2 2 2 2 2 2 2 3 3 4 5 5 5 6 7 8 7 8 8 8 10 9 8 8 8 8 9 10 13 10 10 11 14 14 11 9 10 12 11
5 4 4 3 3 3 3 3 3 4 3 4 4 5 5 5 6 5 7 7 8 9 10 9 11 7 10 10 8 11 10 12 11 17 11 9 13 12 10 12 11 10 11
5 4 4 4 4 5 4 4 4 4 5 4 4 5 6 7 7 7 7 8 8 9 10 11 12 11 12 9 10 10 10 9 11 11 12 10 9 10 12 9 10 11 9
5 6 6 6 5 4 4 4 5 4 6 6 6 7 7 7 8 9 8 9 9 9 10 11 12 12 13 13 11 12 11 10 10 10 11 10 9 9 5 9 9 7 10
6 5 7 6 4 4 5 5 5 5 6 6 7 7 8 8 7 8 9 9 10 11 11 11 12 13 18 17 10 11 11 9 9 10 11 9 10 8 9 7 8 9 10
6 7 6 5 4 6 6 5 5 6 5 6 6 7 8 7 14 16 14 9 9 9 11 12 12 12 14 19 19 19 16 10 11 10 9 10 11 10 9 7 8 9 9
6 6 6 5 6 6 5 5 6 6 5 6 7 7 9 9 17 18 18 9 8 10 12 12 11 9 10 11 15 18 16 20 22 14 13 13 13 10 8 8 9 9 10
6 8 8 6 7 6 5 7 7 5 7 7 7 8 8 9 19 19 19 10 9 10 12 12 12 14 12 11 12 12 12 12 13 10 12 12 10 5 5 8 11 9 9
9 10 7 6 6 6 7 8 7 5 6 7 7 8 9 10 18 19 16 9 9 11 10 12 12 13 17 20 14 14 13 12 12 19 20 21 22 21 16 6 7 8 10
10 9 6 5 6 7 7 7 5 4 7 6 8 8 10 12 18 21 17 7 9 9 11 12 17 16 20 21 14 12 13 12 8 7 7 8 10 9 15 9 7 9 7
8 5 5 6 6 6 6 4 6 7 7 7 10 9 10 11 12 20 20 10 8 9 10 9 9 19 21 21 21 12 12 11 12 10 6 5 4 6 6 6 7 8 7
6 6 6 6 5 4 6 6 6 6 7 8 8 9 8 9 12 16 18 19 17 12 10 8 11 22 22 22 19 21 22 19 5 5 6 5 5 5 5 6 7 7 8
6 7 6 5 5 5 6 7 6 6 7 8 7 8 8 6 6 17 20 20 21 13 9 14 23 24 25 20 19 20 17 8 5 7 6 5 3 3 4 4 5 7 8
8 6 5 6 7 6 5 5 7 7 7 8 8 9 9 8 8 8 8 8 15 13 15 12 15 19 21 18 11 11 8 6 6 6 6 3 2 2 4 3 3 2 3
7 6 7 6 6 5 5 6 7 8 8 7 8 9 10 11 9 15 13 9 8 10 11 8 8 8 8 8 8 8 7 5 5 4 4 3 4 4 5 3 2 1 3
8 6 6 5 3 4 5 8 14 18 19 21 24 19 11 20 23 23 24 26 26 24 11 10 11 10 9 9 10 9 6 6 5 4 4 5 5 5 5 3 2 2 3
9 7 5 4 4 5 5 6 9 10 16 19 21 23 24 24 26 25 24 24 25 22 11 11 11 10 10 10 9 8 8 7 6 5 6 5 5 5 4 3 2 2 2
7 8 5 4 5 5 6 7 7 8 10 10 12 16 20 23 24 24 22 22 12 9 10 11 11 10 11 11 9 9 8 4 5 5 6 6 5 5 4 3 3 3 1
5 4 4 5 5 6 6 7 8 9 10 10 10 12 12 21 22 21 21 10 10 10 10 11 11 11 11 10 9 8 7 6 6 5 5 5 6 6 4 3 3 3 3
5 8 6 5 5 5 7 8 7 8 9 9 9 10 7 4 5 8 8 8 9 9 9 10 11 11 10 8 7 6 5 5 6 5 6 6 6 6 5 4 4 3 3
4 4 7 6 6 6 6 7 8 8 9 10 10 10 19 12 9 7 7 7 9 10 10 10 10 7 7 7 6 6 6 6 6 6 6 6 6 5 4 3 4 2 3
4 5 4 6 6 6 7 7 8 9 10 11 11 10 22 10 8 8 10 9 10 10 10 11 10 10 7 7 7 7 6 7 7 7 7 6 6 5 5 5 4 3 3
5 7 7 6 6 7 7 7 8 9 10 11 11 10 9 8 8 9 10 10 10 10 9 9 10 10 7 6 6 7 8 8 8 8 7 7 6 6 6 5 5 4 3
5 6 7 7 6 6 7 8 8 11 11 11 10 9 9 9 9 10 10 10 10 10 10 10 10 13 7 6 5 6 6 5 6 8 10 8 7 8 6 5 6 4 4
5 7 7 7 7 7 8 9 9 10 10 10 10 9 9 9 9 10 10 9 9 10 11 10 11 11 10 9 8 8 7 10 9 9 7 9 10 11 8 6 5 5 4
6 7 7 7 7 8 8 9 10 10 10 10 10 9 9 9 9 9 9 9 9 10 11 9 11 9 7 7 8 9 10 11 10 12 9 9 10 8 7 8 8 4 7
Wind_Direction
216 208 204 210 209 220 239 247 261 261 273 290 302 305 305 307 307 305 302 300 294 294 290 279 273 267 260 259 252 248 247 246 262 273 273 278 280 285 286 285 292 294 294
217 214 224 230 229 237 236 237 244 271 269 272 284 291 296 300 301 298 300 296 291 292 290 287 277 276 263 256 251 254 250 252 261 274 275 276 274 281 280 298 296 292 292
213 218 225 226 229 236 242 246 249 261 274 266 269 282 293 301 304 302 289 290 286 281 284 284 282 281 273 264 257 255 255 256 258 267 274 276 274 279 290 286 285 291 284
215 217 219 221 222 232 254 262 265 262 274 285 281 276 276 279 282 287 290 287 284 282 279 278 281 282 277 278 269 263 262 260 262 264 272 276 270 281 278 289 292 294 297
224 224 230 228 223 234 243 246 252 250 245 243 255 256 254 252 260 261 263 271 275 281 285 282 281 282 282 278 275 271 269 264 263 269 274 277 279 280 278 284 286 306 302
225 234 239 244 234 236 244 246 252 255 249 249 252 255 265 262 269 277 283 277 274 272 278 277 273 274 278 282 281 275 264 257 251 256 265 266 276 280 283 275 287 307 315
228 242 248 243 242 241 245 256 258 257 256 255 257 256 259 263 277 282 284 278 269 268 268 271 278 270 273 275 278 277 269 270 268 269 264 262 269 271 276 277 282 286 277
230 243 243 233 239 246 242 248 254 243 241 252 256 254 257 263 276 284 287 281 269 263 263 267 264 273 268 277 278 264 251 247 253 261 264 276 278 286 248 277 276 276 275
235 235 234 217 240 243 245 250 250 244 255 251 248 258 257 264 276 283 287 279 272 269 272 267 262 264 266 278 275 270 264 252 249 257 258 263 274 272 265 253 265 287 289
237 237 229 223 225 235 241 251 253 235 261 263 266 255 256 267 279 287 288 276 273 279 280 274 261 257 261 269 268 265 262 264 242 234 244 262 269 285 281 266 275 272 282
235 223 226 228 231 231 248 234 253 255 259 254 262 265 260 257 270 281 284 280 272 277 279 275 273 271 269 273 275 267 265 270 257 249 248 224 237 262 256 251 250 253 255
215 224 229 232 231 234 239 263 252 247 259 264 264 270 259 252 241 267 276 277 279 279 278 281 283 282 276 282 280 271 269 271 247 256 240 232 229 250 264 260 247 245 244
213 229 226 235 236 229 236 258 264 252 251 265 263 270 273 259 245 263 274 279 282 279 271 271 284 287 282 284 288 281 275 257 229 260 242 226 201 258 279 274 259 256 256
238 233 217 235 239 219 228 235 247 253 250 258 265 270 273 263 252 254 254 259 266 269 265 267 262 272 275 283 283 276 258 227 230 251 248 204 173 221 253 246 268 272 266
242 236 231 232 233 245 230 236 239 250 238 253 262 265 270 267 257 257 257 252 253 245 253 255 260 263 261 262 266 257 240 216 211 214 234 234 235 246 254 221 241 246 258
258 257 243 232 232 238 252 279 253 266 271 273 276 275 275 273 276 278 281 289 288 290 283 276 272 266 260 259 259 250 226 221 215 212 217 231 241 245 244 206 205 243 267
249 256 245 237 251 254 251 254 286 296 281 283 281 283 284 284 287 290 291 291 289 289 272 271 266 266 263 249 245 240 234 209 199 211 222 218 223 236 218 212 193 225 227
263 259 263 268 255 256 254 261 260 275 289 292 278 281 283 283 285 289 295 298 289 277 270 269 268 262 252 242 232 235 234 195 193 211 216 212 210 213 197 201 189 202 180
278 278 264 257 250 253 261 262 263 269 273 280 290 282 277 276 286 291 292 284 283 277 268 261 257 249 247 243 234 225 214 202 200 198 208 204 202 196 193 182 168 164 140
281 271 267 261 264 259 255 260 271 272 277 278 278 280 282 272 263 260 254 250 256 260 262 266 252 254 243 224 219 213 198 188 196 202 201 201 192 187 182 175 177 158 186
281 283 273 269 258 264 267 272 273 275 276 277 277 276 277 276 281 272 266 267 268 265 262 262 279 258 244 230 217 198 194 195 197 193 195 189 172 169 157 168 152 152 156
274 273 265 262 273 270 268 269 275 277 278 279 280 279 284 283 280 275 276 272 267 265 266 266 268 268 245 223 210 197 190 193 192 192 184 166 159 140 147 151 143 144 159
276 284 281 268 255 269 274 271 273 274 276 277 279 280 276 270 267 267 270 271 268 264 267 263 267 262 236 219 198 195 189 194 191 181 167 155 148 146 160 152 143 140 163
269 267 272 274 271 268 270 277 275 272 272 275 276 273 269 267 266 267 268 268 268 268 263 260 258 263 234 206 191 192 194 166 167 166 155 149 140 143 145 130 145 134 135
268 274 268 272 275 276 280 275 273 273 273 272 273 270 269 267 267 268 269 270 270 267 266 263 263 253 220 192 188 178 167 161 156 146 140 137 140 144 137 131 138 131 124
269 269 271 274 275 274 274 275 275 276 276 275 274 271 269 268 267 270 273 274 273 274 272 274 267 224 199 187 172 160 158 149 145 138 131 133 136 132 131 130 139 130 122